NO4D Weather Reports


time (UTC)temp
C
wind
direction
speed
KPH
gust
KPH
rain 1hr
cm
rain 24hr
cm
rain mn
cm
humidity
%
barometer
mb
20260505200100 26 192 0.0 1.6 0.00 0.00 0.00 40 1014.9
20260505195555 26 211 9.7 19.3 0.00 0.00 0.00 40 1014.8
20260505195053 26 178 4.8 6.4 0.00 0.00 0.00 39 1014.8
20260505194550 25 132 6.4 8.0 0.00 0.00 0.00 40 1014.9
20260505194046 25 225 9.7 12.9 0.00 0.00 0.00 40 1015.2
20260505193543 26 218 11.3 19.3 0.00 0.00 0.00 39 1015.2
20260505193040 26 170 3.2 4.8 0.00 0.00 0.00 40 1015.1
20260505192539 26 194 8.0 11.3 0.00 0.00 0.00 39 1015.3
20260505192036 26 176 6.4 11.3 0.00 0.00 0.00 40 1015.2
20260505191534 26 215 8.0 8.0 0.00 0.00 0.00 39 1015.4
20260505191032 25 210 4.8 6.4 0.00 0.00 0.00 40 1015.3
20260505190532 26 209 4.8 6.4 0.00 0.00 0.00 39 1015.5
20260505190028 26 204 6.4 6.4 0.00 0.00 0.00 41 1015.3
20260505185525 25 189 1.6 1.6 0.00 0.00 0.00 41 1015.7
20260505185021 25 258 6.4 8.0 0.00 0.00 0.00 41 1015.5
20260505184518 25 181 3.2 6.4 0.00 0.00 0.00 40 1015.7
20260505184015 26 233 11.3 16.1 0.00 0.00 0.00 38 1015.7
20260505183512 25 196 3.2 6.4 0.00 0.00 0.00 41 1015.7
20260505183009 25 179 3.2 4.8 0.00 0.00 0.00 41 1015.9
20260505182506 26 222 8.0 11.3 0.00 0.00 0.00 39 1016.1
20260505182002 25 245 3.2 4.8 0.00 0.00 0.00 40 1016.2
20260505181459 25 236 11.3 16.1 0.00 0.00 0.00 39 1016.1
20260505180956 25 232 8.0 11.3 0.00 0.00 0.00 40 1016.4
20260505180452 25 205 6.4 8.0 0.00 0.00 0.00 42 1016.4
20260505175949 25 239 9.7 12.9 0.00 0.00 0.00 40 1016.4
20260505175445 25 199 8.0 11.3 0.00 0.00 0.00 42 1016.4
20260505174942 25 195 8.0 8.0 0.00 0.00 0.00 41 1016.8
20260505174439 25 239 12.9 19.3 0.00 0.00 0.00 41 1016.5
20260505173935 25 199 14.5 17.7 0.00 0.00 0.00 40 1016.9
20260505173432 25 190 3.2 4.8 0.00 0.00 0.00 41 1016.9
20260505172929 25 191 14.5 24.1 0.00 0.00 0.00 40 1016.7
20260505172427 25 214 4.8 6.4 0.00 0.00 0.00 40 1016.8
20260505171926 25 214 6.4 11.3 0.00 0.00 0.00 42 1016.7
20260505171424 24 196 3.2 4.8 0.00 0.00 0.00 46 1016.7
20260505170920 25 207 6.4 8.0 0.00 0.00 0.00 45 1016.8
20260505170417 25 161 4.8 6.4 0.00 0.00 0.00 44 1016.8
20260505165912 24 194 12.9 17.7 0.00 0.00 0.00 43 1016.6
20260505165408 24 193 1.6 1.6 0.00 0.00 0.00 46 1016.5
20260505164903 23 245 11.3 17.7 0.00 0.00 0.00 45 1017.0
20260505164400 24 158 1.6 1.6 0.00 0.00 0.00 46 1016.8
20260505163859 24 208 8.0 11.3 0.00 0.00 0.00 45 1016.9
20260505163358 24 226 6.4 8.0 0.00 0.00 0.00 46 1016.6
20260505162855 24 207 8.0 8.0 0.00 0.00 0.00 45 1016.5
20260505162351 23 199 8.0 11.3 0.00 0.00 0.00 48 1016.7
20260505161848 23 225 6.4 11.3 0.00 0.00 0.00 49 1017.0
20260505161345 23 241 6.4 8.0 0.00 0.00 0.00 50 1017.1
20260505160843 24 244 8.0 11.3 0.00 0.00 0.00 50 1017.2
20260505160341 23 194 4.8 6.4 0.00 0.00 0.00 51 1016.9
20260505153320 23 206 4.8 6.4 0.00 0.00 0.00 53 1017.5
20260505152817 22 181 4.8 6.4 0.00 0.00 0.00 52 1017.6
20260505152314 22 232 6.4 8.0 0.00 0.00 0.00 54 1017.5
20260505151814 22 218 8.0 8.0 0.00 0.00 0.00 53 1017.5
20260505151311 22 217 6.4 8.0 0.00 0.00 0.00 55 1017.6
20260505150808 22 203 3.2 4.8 0.00 0.00 0.00 56 1017.7
20260505150305 22 215 3.2 4.8 0.00 0.00 0.00 57 1017.8
20260505140229 20 161 3.2 4.8 0.00 0.00 0.00 64 1017.0
20260505130153 17 197 4.8 6.4 0.00 0.00 0.00 73 1017.0
20260505124643 17 328 4.8 4.8 0.00 0.00 0.00 75 1017.1
20260505124139 16 223 1.6 1.6 0.00 0.00 0.00 76 1017.0
20260505123635 17 195 1.6 1.6 0.00 0.00 0.00 76 1017.1
20260505123132 16 201 0.0 0.0 0.00 0.00 0.00 76 1017.0
20260505122629 16 195 0.0 1.6 0.00 0.00 0.00 77 1016.9
20260505122126 16 249 1.6 4.8 0.00 0.00 0.00 77 1016.9
20260505121623 15 192 0.0 1.6 0.00 0.00 0.00 79 1016.8
20260505121119 15 191 1.6 1.6 0.00 0.00 0.00 80 1016.8
20260505120615 15 142 1.6 1.6 0.00 0.00 0.00 81 1016.7
20260505120111 15 88 1.6 1.6 0.00 0.00 0.00 81 1016.7
20260505115606 14 198 0.0 1.6 0.00 0.00 0.00 82 1016.8
20260505115104 14 218 1.6 1.6 0.00 0.00 0.00 83 1016.4
20260505114601 14 256 4.8 8.0 0.00 0.00 0.00 83 1016.4
20260505114057 13 251 9.7 12.9 0.00 0.00 0.00 85 1016.6
20260505113553 13 191 1.6 1.6 0.00 0.00 0.00 85 1016.6
20260505113050 13 194 0.0 1.6 0.00 0.00 0.00 86 1016.6
20260505112547 13 196 0.0 1.6 0.00 0.00 0.00 86 1016.5
20260505112045 13 223 1.6 1.6 0.00 0.00 0.00 85 1016.7
20260505111544 13 203 0.0 1.6 0.00 0.00 0.00 85 1016.7
20260505111040 13 207 1.6 1.6 0.00 0.00 0.00 85 1016.6
20260505110537 13 186 0.0 0.0 0.00 0.00 0.00 85 1016.5
20260505102009 12 207 3.2 4.8 0.00 0.00 0.00 84 1016.2
20260505101508 12 192 0.0 0.0 0.00 0.00 0.00 84 1016.2
20260505101004 12 232 4.8 4.8 0.00 0.00 0.00 83 1016.1
20260505100501 13 268 4.8 6.4 0.00 0.00 0.00 82 1016.2
20260505095957 13 199 3.2 4.8 0.00 0.00 0.00 82 1016.3
20260505095454 13 221 4.8 6.4 0.00 0.00 0.00 82 1016.1
20260505094950 13 204 4.8 6.4 0.00 0.00 0.00 82 1016.2
20260505094447 12 198 1.6 1.6 0.00 0.00 0.00 82 1016.2
20260505093943 12 217 3.2 4.8 0.00 0.00 0.00 83 1016.2
20260505093440 12 231 4.8 6.4 0.00 0.00 0.00 83 1016.2
20260505092937 12 195 3.2 4.8 0.00 0.00 0.00 83 1016.1
20260505092434 12 202 0.0 0.0 0.00 0.00 0.00 82 1016.0
20260505091932 12 219 3.2 4.8 0.00 0.00 0.00 82 1016.2
20260505091429 12 187 0.0 0.0 0.00 0.00 0.00 82 1015.8
20260505090927 11 174 0.0 0.0 0.00 0.00 0.00 83 1015.9
20260505090425 12 177 0.0 0.0 0.00 0.00 0.00 82 1015.9
20260505085922 12 165 0.0 0.0 0.00 0.00 0.00 82 1015.9
20260505085420 12 183 0.0 1.6 0.00 0.00 0.00 82 1015.9
20260505084918 12 180 0.0 0.0 0.00 0.00 0.00 81 1015.8
20260505084416 12 192 0.0 0.0 0.00 0.00 0.00 80 1015.9
20260505083914 12 192 0.0 0.0 0.00 0.00 0.00 79 1015.8
20260505083411 12 179 0.0 0.0 0.00 0.00 0.00 79 1015.7
20260505082907 12 229 1.6 1.6 0.00 0.00 0.00 78 1015.4
20260505082403 12 185 0.0 0.0 0.00 0.00 0.00 79 1015.7
20260505081900 12 183 0.0 0.0 0.00 0.00 0.00 78 1015.7
20260505081357 12 187 0.0 0.0 0.00 0.00 0.00 78 1015.5
20260505080853 12 189 0.0 0.0 0.00 0.00 0.00 77 1015.7
20260505080349 12 202 3.2 4.8 0.00 0.00 0.00 77 1015.7
20260505075845 12 202 1.6 1.6 0.00 0.00 0.00 78 1015.5
20260505075342 12 185 0.0 0.0 0.00 0.00 0.00 77 1015.4
20260505074839 12 192 1.6 1.6 0.00 0.00 0.00 77 1015.4
20260505074336 12 187 0.0 0.0 0.00 0.00 0.00 76 1015.5
20260505073834 12 194 0.0 0.0 0.00 0.00 0.00 76 1015.3
20260505073332 12 175 0.0 0.0 0.00 0.00 0.00 77 1015.5
20260505072828 12 188 0.0 0.0 0.00 0.00 0.00 77 1015.7
20260505072324 12 193 0.0 1.6 0.00 0.00 0.00 77 1015.8
20260505071820 11 179 1.6 1.6 0.00 0.00 0.00 79 1015.4
20260505071317 11 176 0.0 1.6 0.00 0.00 0.00 78 1015.4
20260505070815 12 174 0.0 0.0 0.00 0.00 0.00 77 1015.5
20260505070311 12 171 0.0 0.0 0.00 0.00 0.00 77 1015.5
20260505065807 12 171 0.0 0.0 0.00 0.00 0.00 76 1015.3
20260505065304 12 170 0.0 0.0 0.00 0.00 0.00 75 1015.4
20260505064801 12 164 0.0 0.0 0.00 0.00 0.00 74 1015.4
20260505064258 13 195 0.0 0.0 0.00 0.00 0.00 73 1015.3
20260505063756 13 179 0.0 1.6 0.00 0.00 0.00 73 1015.3
20260505063252 13 155 3.2 4.8 0.00 0.00 0.00 72 1015.3
20260505062749 13 187 0.0 0.0 0.00 0.00 0.00 71 1015.3
20260505062246 13 186 0.0 1.6 0.00 0.00 0.00 71 1015.3
20260505061743 13 154 4.8 4.8 0.00 0.00 0.00 72 1015.3
20260505061241 13 163 1.6 1.6 0.00 0.00 0.00 72 1015.3
20260505060738 13 167 0.0 0.0 0.00 0.00 0.00 71 1015.2
20260505060235 14 163 3.2 4.8 0.00 0.00 0.00 70 1015.3
20260505055730 13 176 0.0 0.0 0.00 0.00 0.00 70 1015.2
20260505055227 13 190 0.0 0.0 0.00 0.00 0.00 69 1015.1
20260505054724 14 191 0.0 0.0 0.00 0.00 0.00 69 1015.3
20260505054222 13 191 0.0 0.0 0.00 0.00 0.00 70 1015.3
20260505053720 13 182 0.0 0.0 0.00 0.00 0.00 70 1015.4
20260505053216 13 181 0.0 0.0 0.00 0.00 0.00 70 1015.5
20260505052713 13 181 0.0 0.0 0.00 0.00 0.00 70 1015.4
20260505052210 13 180 0.0 0.0 0.00 0.00 0.00 70 1015.4
20260505051707 13 180 0.0 0.0 0.00 0.00 0.00 70 1015.5
20260505051205 14 177 0.0 0.0 0.00 0.00 0.00 69 1015.7
20260505050703 14 177 0.0 0.0 0.00 0.00 0.00 68 1015.7
20260505050201 14 177 0.0 0.0 0.00 0.00 0.00 68 1015.4
20260505041637 15 187 0.0 0.0 0.00 0.00 0.00 66 1015.5
20260505041134 15 187 0.0 0.0 0.00 0.00 0.00 65 1015.3
20260505040631 15 187 0.0 0.0 0.00 0.00 0.00 64 1015.8
20260505040128 16 189 0.0 0.0 0.00 0.00 0.00 63 1015.8
20260505035624 16 192 0.0 0.0 0.00 0.00 0.00 62 1015.7
20260505035120 16 194 3.2 4.8 0.00 0.00 0.00 61 1015.8
20260505034617 16 189 1.6 1.6 0.00 0.00 0.00 61 1015.8
20260505034114 17 192 4.8 4.8 0.00 0.00 0.00 59 1015.7
20260505033611 17 211 3.2 4.8 0.00 0.00 0.00 58 1015.8
20260505033110 17 186 0.0 0.0 0.00 0.00 0.00 58 1015.9
20260505032607 17 211 4.8 4.8 0.00 0.00 0.00 58 1015.8
20260505032103 17 190 1.6 1.6 0.00 0.00 0.00 57 1015.7
20260505031601 17 256 1.6 1.6 0.00 0.00 0.00 57 1015.8
20260505031056 17 177 0.0 1.6 0.00 0.00 0.00 57 1015.8
20260505030554 17 172 1.6 4.8 0.00 0.00 0.00 56 1015.9
20260505030049 18 180 4.8 6.4 0.00 0.00 0.00 55 1016.0
20260505025545 18 173 0.0 1.6 0.00 0.00 0.00 55 1016.0
20260505025045 18 201 1.6 1.6 0.00 0.00 0.00 55 1015.8
20260505024541 18 189 0.0 0.0 0.00 0.00 0.00 54 1015.8
20260505024038 18 203 4.8 4.8 0.00 0.00 0.00 54 1015.8
20260505023535 18 184 3.2 4.8 0.00 0.00 0.00 54 1015.8
20260505023033 18 190 0.0 1.6 0.00 0.00 0.00 54 1015.7
20260505022530 18 187 0.0 0.0 0.00 0.00 0.00 54 1015.4
20260505022027 18 167 0.0 1.6 0.00 0.00 0.00 54 1015.5
20260505021524 18 191 3.2 4.8 0.00 0.00 0.00 54 1015.5
20260505021021 18 187 0.0 0.0 0.00 0.00 0.00 54 1015.5
20260505020520 18 201 1.6 4.8 0.00 0.00 0.00 54 1015.3
20260505020018 18 187 1.6 1.6 0.00 0.00 0.00 52 1015.1
20260505015515 18 181 0.0 0.0 0.00 0.00 0.00 52 1015.4
20260505015012 18 191 0.0 0.0 0.00 0.00 0.00 52 1015.3
20260505014509 18 185 0.0 0.0 0.00 0.00 0.00 51 1015.2
20260505014006 18 185 0.0 1.6 0.00 0.00 0.00 51 1015.3
20260505013503 18 188 0.0 0.0 0.00 0.00 0.00 51 1015.1
20260505013000 17 188 0.0 1.6 0.00 0.00 0.00 52 1015.2
20260505012458 17 169 0.0 0.0 0.00 0.00 0.00 54 1015.0
20260505011955 17 169 0.0 0.0 0.00 0.00 0.00 53 1014.8
20260505011450 17 169 0.0 0.0 0.00 0.00 0.00 53 1015.0
20260505010947 17 169 0.0 0.0 0.00 0.00 0.00 51 1015.0
20260505010443 17 169 0.0 0.0 0.00 0.00 0.00 51 1015.0
20260505005939 18 169 0.0 0.0 0.00 0.00 0.00 50 1014.8
20260505005436 18 169 0.0 0.0 0.00 0.00 0.00 49 1014.9
20260505004934 18 179 0.0 0.0 0.00 0.00 0.00 49 1014.7
20260505004430 19 183 0.0 0.0 0.00 0.00 0.00 49 1014.9
20260505003927 19 175 0.0 0.0 0.00 0.00 0.00 49 1015.1
20260505003425 19 183 0.0 0.0 0.00 0.00 0.00 48 1014.8
20260505002921 20 171 0.0 0.0 0.00 0.00 0.00 48 1014.6
20260505002417 20 171 0.0 0.0 0.00 0.00 0.00 47 1014.7
20260505001916 21 185 0.0 0.0 0.00 0.00 0.00 46 1014.5
20260505001413 21 214 4.8 6.4 0.00 0.00 0.00 45 1014.8
20260505000910 21 171 0.0 1.6 0.00 0.00 0.00 45 1014.7
20260505000408 21 183 0.0 1.6 0.00 0.00 0.00 44 1014.7
20260504235904 22 191 1.6 1.6 0.00 0.00 0.00 44 1014.5
20260504235401 22 213 4.8 6.4 0.00 0.00 0.00 42 1014.4
20260504234857 22 224 9.7 12.9 0.00 0.00 0.00 42 1014.5
20260504234355 22 209 8.0 11.3 0.00 0.00 0.00 41 1014.4
20260504233852 22 186 3.2 4.8 0.00 0.00 0.00 40 1014.6
20260504233347 22 202 3.2 4.8 0.00 0.00 0.00 40 1014.2
20260504232844 23 206 6.4 6.4 0.00 0.00 0.00 40 1014.1
20260504232341 23 173 3.2 4.8 0.00 0.00 0.00 39 1014.0
20260504231838 23 194 1.6 1.6 0.00 0.00 0.00 40 1014.2
20260504231335 23 205 12.9 17.7 0.00 0.00 0.00 39 1013.9
20260504230831 23 183 3.2 4.8 0.00 0.00 0.00 38 1014.0
20260504230329 24 187 3.2 4.8 0.00 0.00 0.00 38 1013.9
20260504225827 23 146 3.2 4.8 0.00 0.00 0.00 37 1014.0
20260504225323 24 208 3.2 6.4 0.00 0.00 0.00 37 1014.1
20260504224821 25 157 3.2 4.8 0.00 0.00 0.00 37 1014.1
20260504224318 25 180 3.2 4.8 0.00 0.00 0.00 35 1014.0
20260504223814 25 227 1.6 4.8 0.00 0.00 0.00 35 1014.1
20260504223310 25 203 8.0 11.3 0.00 0.00 0.00 34 1014.2
20260504222807 25 217 3.2 8.0 0.00 0.00 0.00 35 1014.3
20260504222305 25 204 1.6 1.6 0.00 0.00 0.00 36 1014.2
20260504221802 25 164 3.2 4.8 0.00 0.00 0.00 36 1014.2
20260504221258 25 209 3.2 4.8 0.00 0.00 0.00 36 1014.0
20260504220755 25 209 4.8 6.4 0.00 0.00 0.00 35 1014.3
20260504220252 25 177 0.0 1.6 0.00 0.00 0.00 35 1014.2
20260504215749 25 203 3.2 6.4 0.00 0.00 0.00 36 1014.1
20260504215246 25 217 6.4 8.0 0.00 0.00 0.00 35 1014.2
20260504214741 25 183 3.2 4.8 0.00 0.00 0.00 38 1014.1
20260504214238 25 191 6.4 8.0 0.00 0.00 0.00 37 1014.3
20260504213735 25 225 6.4 12.9 0.00 0.00 0.00 37 1014.2
20260504213231 25 200 11.3 17.7 0.00 0.00 0.00 36 1014.1
20260504212729 25 206 4.8 6.4 0.00 0.00 0.00 36 1014.0
20260504212225 25 216 8.0 12.9 0.00 0.00 0.00 35 1014.3
20260504211723 25 192 1.6 4.8 0.00 0.00 0.00 36 1014.1
20260504211219 25 174 1.6 1.6 0.00 0.00 0.00 36 1014.3
20260504210716 25 153 6.4 8.0 0.00 0.00 0.00 35 1014.2
20260504210213 25 187 0.0 1.6 0.00 0.00 0.00 37 1014.4
20260504205710 25 185 3.2 4.8 0.00 0.00 0.00 37 1014.4
20260504205208 25 118 8.0 11.3 0.00 0.00 0.00 36 1014.3
20260504204706 25 157 8.0 11.3 0.00 0.00 0.00 36 1014.6
20260504204204 25 207 3.2 4.8 0.00 0.00 0.00 37 1014.5
20260504203703 25 141 4.8 6.4 0.00 0.00 0.00 33 1014.5
20260504203200 25 196 6.4 8.0 0.00 0.00 0.00 33 1014.4
20260504202700 25 138 6.4 8.0 0.00 0.00 0.00 36 1014.4
20260504202158 26 166 3.2 4.8 0.00 0.00 0.00 37 1014.4
20260504201654 25 260 8.0 8.0 0.00 0.00 0.00 35 1014.6
20260504201152 25 113 3.2 4.8 0.00 0.00 0.00 36 1014.7
20260504200649 25 104 8.0 11.3 0.00 0.00 0.00 34 1014.6
20260504200146 25 209 6.4 8.0 0.00 0.00 0.00 36 1014.7